Temp
19 19 19 18 18 18 18 18 18 18 17 17 16 16 15 15 14 14 13 13 13 12 12 12 11 11 11 11 10 10 10 10 10 10 9 9 9 9 9 9 9 9
19 19 19 18 18 18 18 18 18 18 17 16 16 15 15 14 14 14 13 13 12 12 11 11 11 11 11 10 10 10 10 9 9 9 9 9 9 9 9 9 9 9
18 18 18 18 18 18 18 18 17 17 17 16 15 15 14 14 13 13 13 13 12 11 11 11 11 11 10 10 10 9 10 9 9 9 9 9 9 9 9 9 9 9
18 18 18 18 18 18 18 17 17 17 16 16 15 14 14 13 13 13 13 12 12 11 11 11 10 10 10 10 9 9 9 9 9 9 9 9 9 9 9 8 9 9
18 18 18 18 18 18 18 18 17 17 16 15 15 14 14 14 13 13 13 12 12 11 11 10 10 10 10 9 9 9 9 9 9 9 9 9 9 9 9 8 8 8
18 18 18 18 18 18 18 18 17 16 15 15 14 14 14 14 13 13 13 12 12 11 11 10 10 10 10 9 9 9 9 9 9 9 9 9 9 9 9 8 8 8
18 18 18 18 18 18 18 18 17 16 15 14 14 14 13 13 13 13 13 12 12 11 11 10 10 10 9 9 9 9 9 9 9 9 9 8 9 9 9 8 8 8
19 18 18 18 18 18 18 17 16 15 15 14 14 13 13 13 13 12 12 12 11 11 11 10 10 9 9 9 9 9 9 9 9 8 8 8 8 8 8 8 7 7
19 19 18 18 18 18 17 16 15 15 14 14 13 13 13 13 12 12 12 12 11 11 10 10 10 9 9 9 9 9 9 9 8 8 8 8 8 8 8 8 7 7
19 19 18 18 18 17 16 15 15 14 14 14 13 13 13 12 12 12 12 11 11 11 10 10 10 9 9 9 8 8 8 8 8 8 8 8 8 8 8 7 7 7
19 19 18 17 17 16 15 15 15 14 14 13 13 13 12 12 12 12 12 11 11 11 10 10 10 9 9 9 9 8 8 8 8 8 8 8 8 8 8 7 7 7
19 19 18 17 17 16 15 15 14 14 14 13 13 13 12 12 12 12 12 11 11 10 10 9 9 8 8 8 8 8 8 8 8 8 8 8 8 8 7 7 7 7
19 19 18 17 16 15 15 14 14 14 14 13 13 12 12 12 12 12 11 11 10 10 9 8 8 8 8 8 8 8 8 8 8 8 8 8 8 7 7 7 7 7
20 18 17 16 16 15 15 14 14 14 13 13 12 12 12 12 12 11 11 10 10 9 8 8 8 8 8 8 8 7 7 7 7 8 8 7 7 7 7 7 7 7
20 18 16 16 15 15 14 14 14 13 13 12 12 12 12 12 11 11 11 10 9 8 8 7 8 8 8 8 8 8 7 7 7 7 7 7 7 7 7 7 7 6
19 17 16 16 15 14 14 14 13 13 12 12 12 12 12 11 11 11 10 10 9 8 7 7 8 8 8 7 7 7 7 7 7 7 7 7 7 7 7 7 6 6
18 18 17 16 15 14 14 13 13 12 12 12 12 11 11 11 11 11 10 10 9 7 7 7 7 7 7 7 7 7 7 7 6 6 6 7 7 6 6 6 6 5
18 18 17 16 15 14 13 13 12 12 12 12 11 11 11 11 10 10 10 9 8 7 7 7 7 7 7 7 7 7 7 7 6 6 6 6 6 6 6 6 6 5
18 17 16 15 14 14 13 13 12 12 12 11 11 10 10 10 10 10 9 9 8 7 6 6 7 7 7 7 7 7 6 6 6 6 6 6 6 6 6 6 5 5
17 16 15 15 14 14 13 13 12 12 11 11 10 10 10 10 9 9 9 9 8 7 6 6 7 7 7 7 7 7 6 6 6 6 5 6 6 7 6 6 6 5
17 16 15 15 14 13 13 13 12 12 11 11 10 10 10 9 9 9 9 8 8 7 6 6 7 7 6 6 6 7 6 6 6 6 6 6 7 7 7 6 6 6
17 16 15 15 14 13 13 13 12 11 11 11 10 10 10 9 9 9 8 8 8 7 6 6 7 6 6 6 6 6 6 6 5 5 6 7 7 7 7 6 6 6
17 16 15 14 14 14 13 12 12 11 11 11 10 10 10 9 9 8 8 8 8 7 6 6 6 6 6 6 6 6 6 6 6 6 7 7 7 7 7 7 7 6
17 16 15 14 14 14 13 12 12 11 11 11 10 10 10 9 9 9 8 8 8 7 7 6 6 6 6 6 6 6 6 6 6 6 7 7 7 7 7 7 6 6
17 16 15 15 14 14 13 12 12 11 11 11 10 10 10 9 9 9 8 8 8 8 7 6 6 6 6 6 6 6 6 6 6 6 6 6 6 6 7 7 6 6
16 15 15 15 14 13 12 12 12 11 11 11 10 10 10 10 9 9 9 8 7 7 7 7 6 6 6 6 6 6 6 6 5 5 5 5 5 6 6 7 6 5
Height
838 839 840 840 841 841 841 842 842 842 843 843 843 844 844 844 844 843 843 843 843 842 842 842 841 841 841 841 841 840 840 840 839 839 838 837 837 836 835 835 833 833
838 839 840 840 841 841 841 842 842 842 842 843 843 843 843 843 843 843 843 843 843 843 842 842 842 842 842 842 841 841 841 840 840 839 839 838 837 836 836 835 834 833
838 839 839 840 840 841 841 841 842 842 842 842 842 843 843 843 843 843 844 844 843 843 843 843 843 843 843 842 842 842 841 841 840 840 839 838 838 837 836 836 834 834
838 838 839 840 840 840 841 841 842 842 842 842 842 843 843 843 843 843 844 844 844 844 843 843 844 843 843 843 842 842 842 841 841 840 839 839 838 837 836 836 835 834
837 838 838 839 839 840 840 840 841 841 841 842 842 843 843 843 843 843 844 844 844 844 844 844 844 844 844 843 843 843 842 842 841 840 840 839 838 837 837 836 835 834
836 837 837 838 838 839 839 840 840 840 841 842 842 843 843 843 844 844 844 844 844 844 844 844 844 844 844 844 843 843 842 842 841 840 840 839 838 838 837 836 836 835
835 836 836 837 837 838 839 839 839 839 840 841 842 843 843 843 844 844 844 844 844 845 844 845 845 844 844 844 843 843 842 842 841 841 840 839 839 838 837 837 836 835
834 835 835 836 836 837 837 837 838 839 840 841 841 843 843 843 844 844 844 844 844 845 845 845 845 845 845 844 843 843 842 842 841 841 840 840 839 838 837 837 836 836
833 834 834 835 835 836 836 836 837 838 839 840 841 842 843 843 844 844 844 844 844 845 845 845 846 845 845 844 843 843 842 842 841 841 840 840 839 838 838 837 836 836
832 832 834 834 835 835 836 836 837 838 839 840 841 842 842 843 843 843 844 844 845 845 845 846 846 845 845 844 843 843 842 842 841 840 840 839 839 839 838 837 837 836
830 831 833 834 833 834 835 836 837 838 839 840 841 841 842 843 843 843 844 844 845 845 845 846 845 845 844 844 844 843 842 841 841 840 840 839 839 839 838 838 837 836
829 830 832 832 832 833 834 836 836 838 838 839 840 841 842 842 843 843 844 844 845 845 845 846 845 844 844 843 843 842 842 841 840 840 840 839 839 839 838 838 837 836
827 828 830 830 831 832 834 835 836 837 838 839 840 840 841 842 842 843 844 844 845 845 845 845 844 843 843 842 842 841 841 841 840 840 839 839 839 839 838 838 837 836
825 827 828 829 830 831 834 835 836 837 837 838 839 840 841 842 842 843 844 844 844 844 845 844 843 843 842 841 841 840 840 840 840 840 839 839 839 839 838 838 837 836
823 825 827 829 829 831 833 835 835 836 837 838 839 839 840 841 842 843 843 844 844 844 844 844 843 842 841 841 841 840 839 839 839 840 839 839 839 838 838 838 837 836
821 824 826 828 829 831 833 834 835 836 836 837 838 839 840 841 841 842 843 843 844 844 844 844 842 842 841 841 840 840 839 839 839 839 839 839 839 838 838 837 837 837
820 822 824 826 828 830 832 833 834 835 836 837 837 838 839 840 841 842 842 843 843 844 844 843 842 842 841 840 840 839 839 839 839 839 839 839 838 838 838 837 837 837
819 820 822 825 828 829 831 832 833 834 835 836 836 837 839 840 841 841 841 842 843 843 843 843 842 841 840 840 840 839 839 839 838 838 838 839 838 838 838 837 837 836
818 819 821 824 827 828 830 831 832 833 834 834 835 837 838 839 840 840 841 841 842 843 843 842 842 841 840 840 839 839 839 838 838 838 838 838 838 837 837 837 836 836
817 818 821 824 825 827 829 830 831 832 833 834 835 836 837 838 839 839 840 841 841 842 842 842 842 841 840 840 839 839 838 838 838 838 837 837 837 837 836 836 836 835
816 818 820 822 824 826 828 829 830 831 832 833 834 835 836 837 838 839 839 840 840 841 841 841 841 840 840 839 839 838 838 837 837 837 836 836 836 836 836 835 835 834
814 816 818 820 822 824 826 828 829 829 831 832 833 835 836 836 837 838 838 839 840 840 840 840 840 840 839 839 839 838 837 837 837 836 836 836 836 835 835 834 834 833
812 814 816 818 820 822 824 826 827 828 830 831 832 833 834 836 836 837 837 838 839 839 839 839 839 839 839 839 838 838 837 837 836 836 835 835 835 834 834 833 833 832
810 812 814 816 818 820 822 824 825 827 828 830 831 832 833 835 835 836 837 837 838 839 838 838 838 838 838 838 838 838 837 837 836 836 835 835 834 834 834 832 831 831
809 811 813 815 816 818 820 822 824 826 827 829 830 831 832 834 834 835 836 836 837 838 837 837 837 837 837 837 837 837 837 836 836 835 835 834 834 833 833 832 831 830
808 810 812 813 815 816 818 821 822 824 826 828 829 830 831 832 833 834 835 835 836 836 836 837 836 836 836 837 836 837 837 836 836 835 834 834 833 832 833 832 831 830
Wind_Speed
7 7 6 4 2 2 4 4 2 2 3 3 3 4 5 6 6 7 8 8 9 9 9 10 10 10 9 10 10 9 10 11 9 9 10 11 12 12 12 13 12 13
6 6 6 5 3 1 1 1 1 1 3 3 3 4 5 6 5 7 7 7 8 9 9 9 10 10 9 9 9 9 9 10 10 10 9 10 11 11 12 13 12 12
5 4 4 4 4 2 2 3 3 1 0 3 5 5 6 6 6 7 7 6 7 8 9 9 8 9 9 9 9 9 9 9 10 10 9 10 10 10 11 12 12 12
8 7 6 6 6 5 5 5 4 3 3 5 7 6 6 7 7 7 7 6 6 7 8 8 8 8 8 9 9 8 8 9 10 9 9 10 10 10 11 12 13 12
10 9 8 7 8 7 6 5 4 4 6 7 7 7 7 7 7 6 6 6 6 6 7 7 7 7 7 7 8 8 8 9 9 10 10 10 11 10 10 12 12 12
12 11 9 8 8 8 6 5 4 6 9 8 8 8 8 8 7 6 6 6 6 6 6 7 7 7 6 6 7 7 8 9 9 10 10 10 10 11 10 11 12 12
13 12 11 8 7 8 6 4 7 10 10 10 9 9 8 8 8 7 6 6 6 6 6 6 6 6 6 6 6 7 7 8 9 9 9 10 10 11 11 12 12 12
11 11 10 9 7 7 8 8 11 12 11 10 10 9 8 8 7 7 6 6 6 7 6 5 5 5 5 6 6 7 7 7 8 8 9 10 10 11 12 12 12 12
10 10 10 10 8 8 11 12 12 12 11 11 11 10 9 8 7 7 6 6 6 6 6 5 4 4 5 6 6 7 7 7 8 8 9 10 11 11 12 12 12 12
11 10 10 10 9 11 13 13 13 12 12 12 11 11 10 8 7 7 6 6 6 6 5 4 3 4 4 5 6 6 7 7 8 9 9 10 11 11 11 12 12 13
12 10 10 9 11 13 14 13 13 14 13 12 12 11 9 8 7 6 6 6 6 5 5 4 4 4 4 5 6 6 6 7 8 9 9 10 10 11 11 12 12 13
12 11 10 10 14 15 14 14 14 14 13 12 12 11 9 8 7 6 6 6 6 6 5 4 4 3 3 4 5 6 6 7 7 9 9 9 10 11 11 12 12 13
13 12 12 13 15 15 14 14 14 14 13 13 12 11 9 8 8 7 7 7 7 6 5 4 2 2 2 3 3 4 5 6 7 8 9 9 10 10 11 11 12 13
13 11 12 15 16 14 14 14 14 14 14 13 12 11 9 8 8 8 7 7 7 6 5 2 1 2 3 3 3 2 3 5 7 8 9 9 9 10 11 11 12 13
12 12 13 15 15 15 15 15 15 15 14 14 12 11 10 9 9 8 8 8 7 6 3 1 2 4 5 5 5 4 3 4 5 7 8 9 9 10 11 11 11 12
13 16 15 14 14 16 17 16 16 15 14 13 12 11 10 10 9 8 8 8 8 6 2 0 3 5 5 5 5 6 5 3 3 5 8 8 8 10 11 10 11 12
17 18 16 14 15 17 18 17 16 16 14 14 13 12 11 10 9 9 8 8 8 5 2 0 3 4 5 5 5 5 5 3 4 5 7 7 8 9 10 10 11 11
18 17 16 16 17 18 17 17 17 16 15 14 13 12 11 10 10 9 9 8 7 5 2 0 3 3 4 5 5 5 5 3 2 4 6 6 7 8 9 10 10 10
17 17 18 19 19 18 18 18 17 16 15 14 13 13 12 11 10 9 9 8 7 6 3 1 2 3 4 4 5 5 5 4 2 2 4 6 7 8 9 10 10 10
18 19 20 20 19 19 19 18 17 16 16 14 14 13 12 11 10 10 10 8 8 7 4 2 1 3 3 4 5 5 4 3 3 3 3 5 7 8 9 10 10 9
20 21 21 20 20 20 19 18 17 17 16 15 14 13 12 12 11 10 10 9 8 8 6 3 1 2 3 4 4 5 4 2 3 6 7 7 7 9 9 10 10 8
21 22 22 22 21 20 19 18 18 18 16 15 14 13 12 12 11 10 10 9 9 8 6 4 1 2 2 4 4 4 4 2 3 7 9 8 8 10 9 10 10 7
23 23 23 23 22 21 20 19 19 18 16 15 15 14 13 12 11 11 10 9 9 8 7 5 2 2 2 3 4 4 4 1 2 6 8 7 8 9 9 10 9 7
23 24 24 24 23 22 21 20 19 18 16 16 15 14 14 12 11 11 10 10 9 8 8 7 5 2 2 3 3 4 3 1 2 6 8 7 8 8 8 8 7 7
24 24 24 24 23 22 22 21 19 18 17 16 14 14 14 12 12 11 10 10 10 9 9 8 7 5 3 3 3 3 2 1 2 6 7 6 7 8 8 6 5 9
24 24 24 23 23 22 22 21 19 18 17 16 15 14 13 13 12 11 11 11 10 10 10 9 8 7 4 3 3 2 1 1 1 4 6 6 6 7 8 6 6 8
Wind_Direction
166 162 151 168 190 62 88 88 63 70 69 63 66 80 95 88 80 77 69 63 57 48 41 36 36 37 32 29 31 32 31 27 27 24 20 23 20 18 17 12 14 13
183 159 149 170 185 92 85 66 337 25 47 79 116 118 111 104 93 89 80 69 60 50 45 42 40 39 35 32 33 34 32 27 24 22 18 20 19 17 17 12 10 14
206 175 167 180 188 206 229 234 240 256 351 130 134 126 115 108 94 90 85 75 65 51 48 49 43 41 38 36 35 34 32 25 21 21 19 19 19 17 18 13 9 16
200 202 205 206 206 215 221 225 238 225 174 146 135 131 121 110 99 92 87 76 71 61 54 52 46 42 39 36 36 33 30 25 20 21 22 21 18 16 18 14 11 19
199 203 206 208 206 208 211 216 228 187 154 145 134 128 122 115 109 98 90 80 75 71 63 57 49 44 38 32 33 32 28 26 21 21 24 21 18 17 18 15 13 18
197 202 204 211 204 195 206 214 194 158 144 140 133 127 125 121 113 102 94 86 79 76 69 61 50 44 43 33 32 30 27 25 22 22 24 20 17 18 20 18 14 15
191 199 202 209 202 185 194 190 157 149 142 138 135 131 128 121 113 107 98 91 86 82 75 66 54 46 43 37 33 30 25 25 21 20 21 18 16 18 19 19 15 14
190 199 200 207 205 182 174 162 151 149 144 139 135 131 129 122 115 110 102 98 94 86 77 68 58 48 43 39 36 31 27 25 21 19 19 16 15 16 17 16 13 12
198 202 205 210 203 173 161 156 151 149 144 141 137 133 130 124 118 113 107 104 99 90 80 67 57 52 46 39 33 29 27 24 21 19 17 15 14 13 12 12 9 8
206 203 216 215 186 163 158 153 148 146 144 142 140 135 131 126 121 118 113 109 103 93 82 70 59 53 47 40 33 29 25 21 20 18 15 14 11 9 8 7 5 4
207 205 224 212 171 158 156 150 146 145 145 143 141 137 132 129 126 121 118 114 106 96 85 76 63 49 42 35 27 24 23 21 19 15 13 12 8 5 5 3 2 1
206 209 217 190 163 156 152 149 148 147 146 143 141 138 133 132 128 123 121 113 105 98 87 77 70 61 59 46 31 24 20 18 17 14 11 8 4 3 2 360 359 358
204 211 202 172 156 152 151 151 150 148 146 143 142 138 135 134 129 125 124 115 108 102 92 82 80 86 98 88 60 40 25 16 12 11 9 6 2 0 360 358 358 356
201 197 176 160 154 152 153 153 151 151 148 144 141 138 136 136 134 132 130 120 113 109 106 108 100 78 72 71 61 59 59 36 15 6 5 3 360 359 358 356 356 354
191 172 157 155 154 153 156 156 154 152 148 143 141 138 138 139 138 137 135 127 120 115 118 130 83 76 63 54 45 42 54 45 23 7 0 358 357 357 356 354 355 354
177 164 157 155 155 156 158 157 154 152 147 144 141 140 141 142 141 141 138 134 126 123 136 73 68 67 53 45 39 33 28 34 49 21 357 353 356 354 353 353 354 352
169 166 163 162 163 162 160 157 155 152 148 145 145 145 145 145 146 144 141 138 133 137 173 169 66 64 54 42 30 26 21 25 58 30 357 347 351 350 349 349 347 348
174 169 165 167 166 162 160 159 155 152 150 150 149 150 149 149 151 148 142 140 138 149 196 309 59 58 48 40 25 17 13 7 34 23 355 339 339 341 341 340 337 339
170 160 160 165 165 163 162 159 155 153 154 153 152 152 152 153 155 151 146 146 145 151 189 286 41 51 36 33 21 7 7 10 14 10 341 324 326 329 328 330 328 325
159 158 161 164 164 163 161 158 157 156 155 154 155 156 156 157 160 154 150 153 152 155 186 257 359 37 26 22 11 0 6 24 31 17 334 305 312 319 317 319 318 312
162 162 163 162 161 162 160 160 160 157 156 158 158 159 160 161 163 159 155 159 160 168 199 242 350 24 17 11 1 354 350 345 354 344 320 298 306 315 312 311 310 303
165 163 162 161 160 161 161 162 162 159 160 161 159 161 164 164 166 164 161 165 167 177 207 238 329 7 5 0 353 351 342 310 319 323 309 301 312 313 309 310 306 294
167 164 163 162 161 162 163 162 163 162 162 163 162 164 165 167 171 168 166 173 175 180 205 229 268 342 2 348 346 353 341 304 339 331 316 314 319 314 312 310 296 284
168 164 164 163 163 164 164 163 164 163 164 167 166 166 169 172 173 169 171 179 180 181 197 223 248 282 337 330 336 358 343 296 357 341 326 322 320 317 318 309 290 304
168 166 165 164 164 164 164 164 164 165 166 169 169 169 171 173 173 174 176 178 183 186 191 212 241 257 290 309 319 351 334 268 9 345 325 321 321 318 322 318 309 320
168 167 166 165 164 164 164 163 164 166 167 169 171 171 172 175 178 179 178 180 192 199 193 204 237 253 261 277 294 322 302 233 9 342 316 312 319 316 319 330 335 330